Location: Rostock
(54.0884°N, 12.1234°E)
Time: 02:28:16
(UTC+01:00)

ISS - Pass Details

Date: 10 January 2018
Orbit: 402 x 407 km, 51.6° (Epoch: 18 January)

Event Time Altitude Azimuth Distance (km) Brightness Sun altitude
Exits shadow 06:31:22 26° 234° (SW) 849 -2.6 -15.9°
Maximum altitude 06:32:15 30° 203° (SSW) 758 -2.6 -15.7°
Drops below altitude 10° 06:35:11 10° 140° (SE) 1,466 -0.1 -15.3°
Sets 06:37:24 0° 129° (SE) 2,325 1.3 -15.0°
